[[{"header":{"parameterUnit":"m.s-1","parameterCategory":1,"la1":30.2991,"la2":30.254,"lo1":-89.0895,"lo2":-89.0444,"dy":0.0017,"dx":0.0017,"nx":28,"ny":28,"refTime":"2023-08-24T09:00:00:Z","depth":0,"parameterNumber":2,"parameterNumberName":"U-component_of_WINDS"},"data":[0,0,0,0,0,0,0,0,0,0,0,0,0,0,0,0,0,0,0,0,0,0,0,0,0,0,0,0,0,0,0,0,0,0,0,0,0,0,0,0,0,0,0,0,0,0,0,0,0,0,0,0,0,0,0,0,0,0,-0.3357,-0.3356,0,-0.3209,-0.3207,-0.3206,-0.3152,-0.3152,-0.3153,-0.3153,-0.2999,-0.2994,-0.299,0,0,0,0,0,0,0,0,0,0,0,0,0,-0.3592,-0.3588,-0.3358,-0.3356,-0.3354,-0.3209,-0.3207,-0.3205,-0.3152,-0.3152,-0.3153,-0.3154,-0.3,-0.2995,-0.2989,0,0,0,0,0,0,0,0,0,0,0,0,0,-0.3472,-0.3587,-0.3358,-0.331,-0.3304,-0.321,-0.3207,-0.3205,-0.3152,-0.3152,-0.3153,-0.3154,-0.3002,-0.2995,-0.2989,-0.2931,0,0,-0.2968,-0.2965,0,0,0,0,0,0,0,0,-0.3479,-0.3463,-0.3319,-0.3313,-0.3306,-0.32,-0.3233,-0.3113,-0.3151,-0.3209,-0.3153,-0.3154,-0.3065,-0.3053,-0.3023,-0.2923,-0.2917,-0.2967,-0.2963,-0.296,-0.2958,0,0,0,0,0,0,0,-0.3487,-0.3469,-0.3299,-0.3317,-0.3309,-0.3295,-0.3279,-0.321,-0.3135,-0.3204,-0.32,-0.3184,-0.3062,-0.303,-0.3019,-0.2914,-0.2967,-0.2961,-0.2957,-0.2954,-0.276,-0.2759,0,0,0,0,0,0,-0.3504,-0.3477,-0.3303,-0.3294,-0.3396,-0.329,-0.3272,-0.3233,-0.3135,-0.3121,-0.3183,-0.3182,-0.3041,-0.3027,-0.3014,-0.294,-0.296,-0.2953,-0.2949,-0.2761,-0.276,-0.2758,0,0,0,0,0,0,-0.3509,-0.3489,-0.3309,-0.3384,-0.336,-0.3285,-0.3242,-0.323,-0.3198,-0.3119,-0.3105,-0.3165,-0.3042,-0.3023,-0.2952,-0.2933,-0.295,-0.2944,-0.2762,-0.276,-0.2759,-0.2791,0,0,0,0,0,0,-0.3516,-0.3491,-0.3469,-0.3384,-0.3357,-0.3251,-0.3241,-0.3226,-0.3187,-0.3184,-0.3098,-0.3085,-0.3041,-0.2963,-0.2945,-0.2924,-0.2939,-0.2763,-0.2761,-0.2759,-0.2791,-0.2791,-0.279,0,0,0,0,0,-0.3525,-0.3483,-0.3468,-0.3447,-0.3327,-0.325,-0.3234,-0.3185,-0.3186,-0.3162,-0.3111,-0.3088,-0.2938,-0.2956,-0.2936,-0.2912,-0.2764,-0.2762,-0.276,-0.2791,-0.2791,-0.279,0,0,0,0,0,0,-0.3566,-0.3471,-0.3453,-0.3383,-0.3325,-0.3241,-0.321,-0.3186,-0.3126,-0.3125,-0.3066,-0.3047,-0.2981,-0.2939,-0.296,-0.2851,-0.285,-0.2843,-0.2881,-0.288,-0.2879,-0.2891,-0.2933,0,0,0,0,0,-0.3568,-0.3514,-0.3433,-0.3379,-0.3351,-0.3286,-0.325,-0.3218,-0.3155,-0.313,-0.3073,-0.3013,-0.2952,-0.2914,-0.2853,-0.2785,-0.2766,-0.2759,-0.2759,-0.2759,-0.2754,-0.2715,-0.2711,-0.2751,-0.2751,-0.2751,0,0,-0.3569,-0.351,-0.348,-0.3386,-0.3337,-0.3282,-0.3265,-0.3207,-0.3166,-0.312,-0.305,-0.3007,-0.2935,-0.2865,-0.2832,-0.2829,-0.2739,-0.2756,-0.2756,-0.2751,-0.2712,-0.2709,-0.2705,-0.2749,-0.275,-0.275,0,0,-0.3544,-0.3494,-0.3444,-0.3396,-0.3323,-0.328,-0.3268,-0.3187,-0.3157,-0.3086,-0.3051,-0.3,-0.2897,-0.2847,-0.2809,-0.2766,-0.2742,-0.2748,-0.2745,-0.2708,-0.2705,-0.2702,-0.2687,-0.2682,-0.2743,-0.2743,-0.2743,0,-0.3555,-0.3471,-0.3421,-0.3365,-0.3325,-0.3282,-0.3231,-0.3186,-0.3097,-0.307,-0.3068,-0.2938,-0.2887,-0.2805,-0.2795,-0.2765,-0.2749,-0.2757,-0.271,-0.2706,-0.2703,-0.2688,-0.2682,-0.2745,-0.2744,-0.2744,-0.2744,0,-0.3488,-0.3431,-0.3399,-0.3315,-0.3271,-0.3218,-0.3159,-0.312,-0.3092,-0.3049,-0.2977,-0.2914,-0.2841,-0.2819,-0.279,-0.2733,-0.2733,-0.2722,-0.2719,-0.2701,-0.2686,-0.268,-0.2746,-0.2746,-0.2746,-0.2745,0,0,-0.3485,-0.3374,-0.3364,-0.3325,-0.3242,-0.3196,-0.3141,-0.307,-0.3038,-0.2978,-0.293,-0.2845,-0.2833,-0.279,-0.2755,-0.2722,-0.2693,-0.2714,-0.2711,-0.2712,-0.2627,-0.2636,-0.2631,-0.2676,-0.2675,-0.2674,-0.2633,0,-0.3449,-0.3349,-0.3303,-0.3223,-0.317,-0.3129,-0.3081,-0.3024,-0.2983,-0.2931,-0.2885,-0.2825,-0.2815,-0.2788,-0.2754,-0.2704,-0.2675,-0.2706,-0.2631,-0.2629,-0.265,-0.2622,-0.2632,-0.2596,-0.2626,-0.2625,-0.2625,0,-0.3393,-0.3335,-0.3251,-0.3174,-0.315,-0.3108,-0.304,-0.299,-0.2925,-0.2898,-0.285,-0.2816,-0.2756,-0.2758,-0.2674,-0.2697,-0.2663,-0.2634,-0.2631,-0.2622,-0.2626,-0.2613,-0.2584,-0.2579,-0.2615,-0.2616,-0.2616,0,-0.34,-0.33,-0.3236,-0.3205,-0.3114,-0.3085,-0.3046,-0.2982,-0.2943,-0.2883,-0.2857,-0.279,-0.2754,-0.2703,-0.2652,-0.2658,-0.2574,-0.2571,-0.2549,-0.255,-0.2533,-0.2535,-0.2498,-0.2511,-0.2511,-0.2511,-0.2512,0,-0.3364,-0.3315,-0.3238,-0.32,-0.3143,-0.3089,-0.3034,-0.2991,-0.2935,-0.2887,-0.2847,-0.2803,-0.2738,-0.2686,-0.2645,-0.2583,-0.2566,-0.2542,-0.2532,-0.2546,-0.2549,-0.2523,-0.2524,-0.251,-0.251,-0.2511,-0.2511,0,-0.3362,-0.3309,-0.3237,-0.3158,-0.3136,-0.3098,-0.3029,-0.299,-0.2947,-0.2887,-0.287,-0.2802,-0.2738,-0.2683,-0.2598,-0.2571,-0.2506,-0.2494,-0.2529,-0.2523,-0.2504,-0.2507,-0.2449,-0.2439,-0.246,-0.246,-0.2459,0,-0.3343,-0.3304,-0.3221,-0.3186,-0.3148,-0.3092,-0.3053,-0.2999,-0.2958,-0.2882,-0.2852,-0.2785,-0.2729,-0.2629,-0.2572,-0.2507,-0.2492,-0.2477,-0.2482,-0.2498,-0.2493,-0.2496,-0.2492,-0.2477,-0.2477,-0.2477,-0.2477,0,-0.3315,-0.3291,-0.3236,-0.3171,-0.3125,-0.3071,-0.3016,-0.299,-0.2926,-0.2883,-0.2818,-0.2774,-0.2688,-0.2623,-0.2552,-0.251,-0.2483,-0.2476,-0.2467,-0.2481,-0.2503,-0.2491,-0.2529,-0.2477,-0.2477,-0.2477,-0.2477,-0.2477,-0.3304,-0.3268,-0.3204,-0.3143,-0.3097,-0.3046,-0.3006,-0.2958,-0.2903,-0.283,-0.2801,-0.2735,-0.2671,-0.2573,-0.2532,-0.2478,-0.2474,-0.2461,-0.2458,-0.2456,-0.2459,-0.2512,-0.2465,-0.2465,-0.2465,-0.2465,-0.2465,0,-0.3275,-0.3232,-0.3177,-0.3102,-0.3054,-0.3034,-0.2972,-0.2934,-0.2876,-0.2819,-0.2765,-0.269,-0.2627,-0.2565,-0.2498,-0.2468,-0.2453,-0.2452,-0.2453,-0.2444,-0.2466,-0.248,-0.2464,-0.2464,-0.2464,-0.2464,-0.2465,-0.2465,-0.3254,-0.3191,-0.316,-0.3074,-0.3031,-0.2966,-0.2933,-0.2886,-0.2841,-0.276,-0.2707,-0.2668,-0.2609,-0.2537,-0.2478,-0.2461,-0.2439,-0.2441,-0.2421,-0.2442,-0.2443,-0.2444,-0.2457,-0.2436,-0.2436,-0.2403,-0.2403,-0.2403]},{"header":{"parameterUnit":"m.s-1","parameterCategory":1,"la1":30.2991,"la2":30.254,"lo1":-89.0895,"lo2":-89.0444,"dy":0.0017,"dx":0.0017,"nx":28,"ny":28,"refTime":"2023-08-24T09:00:00:Z","depth":0,"parameterNumber":3,"parameterNumberName":"V-component_of_WINDS"},"data":[0,0,0,0,0,0,0,0,0,0,0,0,0,0,0,0,0,0,0,0,0,0,0,0,0,0,0,0,0,0,0,0,0,0,0,0,0,0,0,0,0,0,0,0,0,0,0,0,0,0,0,0,0,0,0,0,0,0,1.6529,1.6529,0,1.648,1.6479,1.6479,1.6457,1.6457,1.6457,1.6458,1.6404,1.6402,1.6401,0,0,0,0,0,0,0,0,0,0,0,0,0,1.6601,1.66,1.6529,1.6529,1.6528,1.648,1.6479,1.6479,1.6457,1.6457,1.6457,1.6458,1.6404,1.6403,1.6401,0,0,0,0,0,0,0,0,0,0,0,0,0,1.6563,1.66,1.6529,1.6512,1.651,1.648,1.6479,1.6478,1.6457,1.6457,1.6457,1.6458,1.6405,1.6403,1.6401,1.6384,0,0,1.6394,1.6393,0,0,0,0,0,0,0,0,1.6565,1.656,1.6515,1.6513,1.6511,1.6475,1.6485,1.6447,1.6457,1.6477,1.6458,1.6458,1.6427,1.6423,1.6413,1.6381,1.6379,1.6393,1.6392,1.6391,1.639,0,0,0,0,0,0,0,1.6568,1.6562,1.651,1.6514,1.6512,1.6505,1.65,1.6478,1.6452,1.6475,1.6474,1.6468,1.6426,1.6416,1.6412,1.6378,1.6393,1.6391,1.639,1.6389,1.6327,1.6327,0,0,0,0,0,0,1.6574,1.6565,1.6511,1.6508,1.6539,1.6504,1.6498,1.6486,1.6452,1.6447,1.6468,1.6467,1.6419,1.6415,1.641,1.6387,1.6391,1.6389,1.6388,1.6328,1.6327,1.6327,0,0,0,0,0,0,1.6575,1.6569,1.6513,1.6536,1.6528,1.6502,1.649,1.6485,1.6475,1.6447,1.6442,1.6463,1.6419,1.6413,1.639,1.6385,1.6388,1.6386,1.6328,1.6327,1.6327,1.6341,0,0,0,0,0,0,1.6578,1.657,1.6565,1.6536,1.6527,1.6496,1.6489,1.6484,1.6471,1.647,1.644,1.6435,1.6419,1.6394,1.6388,1.6381,1.6384,1.6328,1.6328,1.6327,1.6341,1.6341,1.6341,0,0,0,0,0,1.658,1.657,1.6564,1.6558,1.652,1.6495,1.649,1.6472,1.6471,1.6464,1.6446,1.6436,1.6386,1.6392,1.6385,1.6378,1.6328,1.6328,1.6327,1.6341,1.6341,1.6341,0,0,0,0,0,0,1.6599,1.6566,1.6559,1.654,1.6521,1.6492,1.6483,1.6474,1.6453,1.6453,1.6431,1.6424,1.6402,1.6388,1.6394,1.6358,1.6356,1.6354,1.6369,1.6369,1.6369,1.6373,1.6382,0,0,0,0,0,1.66,1.6584,1.6557,1.6542,1.6533,1.651,1.6498,1.6486,1.6465,1.6456,1.6436,1.6415,1.6394,1.6381,1.636,1.6339,1.633,1.633,1.633,1.6331,1.6329,1.6314,1.6313,1.6325,1.6325,1.6325,0,0,1.6604,1.6584,1.6576,1.6545,1.6529,1.6511,1.6503,1.6485,1.6471,1.6453,1.643,1.6414,1.6389,1.6366,1.6355,1.6353,1.6324,1.633,1.633,1.6328,1.6313,1.6312,1.6311,1.6324,1.6324,1.6324,0,0,1.6601,1.6586,1.6571,1.6554,1.653,1.6514,1.651,1.6482,1.6471,1.6448,1.6434,1.6416,1.6381,1.6363,1.6349,1.6337,1.6326,1.6331,1.6331,1.6317,1.6316,1.6315,1.6309,1.6307,1.6329,1.6329,1.6329,0,1.6609,1.6583,1.6565,1.6547,1.6533,1.6516,1.65,1.6485,1.6454,1.6444,1.6443,1.6397,1.6379,1.635,1.6347,1.6337,1.6331,1.6334,1.6318,1.6317,1.6316,1.631,1.6308,1.633,1.633,1.633,1.633,0,1.6592,1.6574,1.6565,1.6536,1.6521,1.6504,1.6482,1.6469,1.6457,1.6441,1.6416,1.6393,1.6367,1.6359,1.6348,1.6329,1.6328,1.6323,1.632,1.6315,1.6309,1.6307,1.6331,1.6331,1.633,1.633,0,0,1.66,1.6561,1.6557,1.6543,1.6513,1.6498,1.648,1.6454,1.6442,1.6421,1.6404,1.6374,1.6368,1.6352,1.6339,1.6326,1.6316,1.6322,1.6321,1.632,1.629,1.6293,1.6291,1.6309,1.6308,1.6308,1.6292,0,1.6593,1.656,1.6542,1.6516,1.6498,1.648,1.6464,1.6443,1.6427,1.6408,1.6389,1.6368,1.6363,1.6353,1.634,1.632,1.6309,1.6321,1.629,1.629,1.6297,1.6288,1.6292,1.6278,1.6289,1.6289,1.6289,0,1.658,1.6559,1.6531,1.6501,1.6493,1.6479,1.6453,1.6435,1.641,1.6399,1.6381,1.6367,1.6344,1.6344,1.6311,1.632,1.6306,1.6294,1.6293,1.6288,1.6288,1.6282,1.6273,1.6271,1.6285,1.6285,1.6285,0,1.6587,1.6552,1.653,1.6518,1.6484,1.6474,1.6458,1.6434,1.6419,1.6396,1.6385,1.636,1.6345,1.6325,1.6304,1.6306,1.6272,1.6271,1.6261,1.6261,1.6254,1.6255,1.6242,1.6248,1.6248,1.6248,1.6248,0,1.6579,1.6563,1.6532,1.6519,1.6499,1.6477,1.6458,1.6441,1.6418,1.64,1.6383,1.6366,1.634,1.6319,1.6302,1.6276,1.627,1.6259,1.6254,1.626,1.6261,1.625,1.625,1.6247,1.6247,1.6247,1.6247,0,1.6584,1.6563,1.6538,1.6507,1.6499,1.6485,1.6457,1.6443,1.6425,1.6402,1.6395,1.6367,1.6341,1.6318,1.6284,1.6272,1.6245,1.6241,1.6254,1.6251,1.6243,1.6243,1.6221,1.6216,1.6226,1.6226,1.6226,0,1.6581,1.6567,1.6534,1.6521,1.6506,1.6485,1.647,1.6448,1.6432,1.6401,1.6389,1.6362,1.6339,1.6298,1.6274,1.6246,1.624,1.6234,1.6236,1.6241,1.6238,1.6238,1.6236,1.6234,1.6234,1.6234,1.6234,0,1.6576,1.6566,1.6545,1.6519,1.6501,1.648,1.6458,1.6448,1.6421,1.6404,1.6377,1.6359,1.6323,1.6296,1.6266,1.6248,1.6236,1.6233,1.6229,1.6234,1.6242,1.6236,1.6253,1.6234,1.6234,1.6234,1.6234,1.6234,1.6575,1.6561,1.6536,1.6512,1.6493,1.6473,1.6457,1.6437,1.6414,1.6384,1.6372,1.6344,1.6317,1.6275,1.6257,1.6234,1.6232,1.6226,1.6225,1.6223,1.6224,1.6247,1.6228,1.6228,1.6228,1.6228,1.6228,0,1.6568,1.655,1.6529,1.6498,1.6479,1.647,1.6444,1.6428,1.6405,1.6381,1.6358,1.6326,1.6299,1.6272,1.6242,1.6229,1.6222,1.6221,1.6222,1.6217,1.6228,1.6234,1.6227,1.6227,1.6227,1.6227,1.6227,1.6227,1.6562,1.6538,1.6525,1.649,1.6472,1.6445,1.6431,1.6411,1.6391,1.6357,1.6334,1.6317,1.6291,1.6259,1.6232,1.6225,1.6214,1.6215,1.6206,1.6216,1.6217,1.6217,1.6222,1.6213,1.6213,1.6197,1.6196,1.6196]}]]